CW5346 Weather Reports


Display with metric or nautical units.
time (UTC)temp
F
wind
direction
speed
MPH
gust
MPH
rain 1hr
in
rain 24hr
in
rain mn
in
humidity
%
barometer
mb
20260503020604 52 347 4.0 6.0 0.00 0.01 0.01 45 1011.5
20260503015604 51 350 3.0 6.0 0.00 0.01 0.01 46 1011.7
20260503014604 51 349 1.0 8.0 0.00 0.01 0.01 49 1011.5
20260503013604 51 348 2.0 4.0 0.00 0.01 0.01 48 1011.5
20260503012603 51 348 0.0 3.0 0.00 0.01 0.01 49 1011.5
20260503011604 51 349 0.0 2.0 0.00 0.01 0.01 49 1011.4
20260503010604 51 349 0.0 9.0 0.00 0.01 0.01 50 1011.3
20260503005604 51 349 0.0 0.0 0.00 0.01 0.01 53 1011.2
20260503004604 52 349 0.0 0.0 0.00 0.01 0.01 51 1011.0
20260503003625 52 349 0.0 0.0 0.00 0.01 0.01 50 1011.0
20260503002604 53 348 1.0 3.0 0.00 0.01 0.01 47 1011.0
20260503001604 53 348 2.0 4.0 0.00 0.01 0.01 47 1010.9
20260503000604 54 349 0.0 3.0 0.00 0.01 0.01 46 1010.9
20260502235604 54 348 3.0 6.0 0.00 0.01 0.01 43 1010.8
20260502234611 54 349 2.0 10.0 0.00 0.01 0.01 44 1010.9
20260502233604 54 355 0.0 3.0 0.00 0.01 0.01 45 1010.8
20260502232625 55 354 3.0 6.0 0.00 0.01 0.01 42 1010.7
20260502231604 55 354 2.0 9.0 0.00 0.01 0.01 41 1010.6
20260502230604 55 354 4.0 6.0 0.00 0.01 0.01 41 1010.6
20260502225604 56 350 4.0 9.0 0.00 0.01 0.01 41 1010.6
20260502224603 56 354 1.0 4.0 0.00 0.01 0.01 42 1010.3
20260502223625 57 354 2.0 8.0 0.00 0.01 0.01 40 1010.4
20260502222604 57 354 4.0 10.0 0.00 0.01 0.01 40 1010.4
20260502221604 58 341 4.0 8.0 0.00 0.01 0.01 39 1010.3
20260502220604 58 340 3.0 8.0 0.00 0.01 0.01 38 1010.3
20260502215604 59 343 4.0 10.0 0.00 0.01 0.01 40 1010.1
20260502214625 59 308 3.0 9.0 0.00 0.01 0.01 38 1010.1
20260502213604 59 312 4.0 9.0 0.00 0.01 0.01 40 1010.1
20260502212604 59 337 2.0 8.0 0.00 0.01 0.01 37 1010.0
20260502211604 59 345 0.0 9.0 0.00 0.01 0.01 40 1009.9
20260502210604 59 341 3.0 6.0 0.00 0.01 0.01 40 1009.8
20260502205604 59 336 4.0 6.0 0.00 0.01 0.01 41 1009.7
20260502204604 59 333 2.0 8.0 0.00 0.01 0.01 39 1009.5
20260502203603 59 341 1.0 8.0 0.00 0.01 0.01 39 1009.7
20260502202605 58 321 0.0 6.0 0.00 0.01 0.01 40 1009.8
20260502201603 58 312 3.0 10.0 0.00 0.01 0.01 40 1010.0
20260502200626 59 313 3.0 6.0 0.00 0.01 0.01 42 1010.1
20260502195603 59 309 0.0 5.0 0.00 0.01 0.01 42 1010.1
20260502194604 59 309 4.0 8.0 0.00 0.01 0.01 41 1010.3
20260502193604 59 319 2.0 9.0 0.00 0.01 0.01 42 1010.3
20260502192603 59 354 2.0 10.0 0.00 0.01 0.01 41 1010.5
20260502191604 59 314 1.0 5.0 0.00 0.01 0.01 40 1010.7
20260502190604 59 301 5.0 7.0 0.00 0.01 0.01 41 1010.7
20260502185603 60 281 2.0 8.0 0.00 0.01 0.01 39 1010.8
20260502184625 59 295 0.0 4.0 0.00 0.01 0.01 45 1010.8
20260502183604 58 294 3.0 7.0 0.00 0.01 0.01 44 1011.0
20260502181604 57 340 2.0 6.0 0.00 0.01 0.01 47 1011.1
20260502180603 57 337 2.0 8.0 0.00 0.01 0.01 46 1011.2
20260502163604 56 316 1.0 6.0 0.00 0.01 0.01 57 1011.9
20260502162603 55 315 0.0 7.0 0.00 0.01 0.01 58 1011.9
20260502161647 55 303 0.0 5.0 0.00 0.01 0.01 59 1012.0
20260502160624 55 298 4.0 11.0 0.00 0.01 0.01 58 1012.1
20260502151604 53 348 2.0 8.0 0.00 0.01 0.01 67 1012.3
20260502150604 52 348 1.0 6.0 0.00 0.01 0.01 71 1012.5
20260502130604 50 345 2.0 8.0 0.00 0.01 0.01 82 1012.9
20260502122624 49 13 3.0 12.0 0.00 0.01 0.01 86 1012.1
20260502121603 49 302 1.0 7.0 0.00 0.01 0.01 88 1012.1
20260502120646 49 284 0.0 4.0 0.00 0.01 0.01 91 1012.1
20260502115603 49 284 0.0 7.0 0.00 0.01 0.01 93 1012.0
20260502114625 49 336 0.0 0.0 0.00 0.01 0.01 95 1012.2
20260502113604 48 337 0.0 0.0 0.00 0.01 0.01 95 1012.3
20260502112603 48 338 0.0 0.0 0.00 0.01 0.01 95 1012.2
20260502111604 47 338 0.0 0.0 0.00 0.01 0.01 95 1012.3
20260502110603 47 338 0.0 0.0 0.00 0.01 0.01 95 1012.0
20260502105604 47 338 0.0 0.0 0.00 0.01 0.01 94 1011.9
20260502103603 46 355 0.0 0.0 0.00 0.01 0.01 93 1011.6
20260502102604 46 355 0.0 0.0 0.00 0.01 0.01 93 1011.4
20260502101604 47 355 0.0 0.0 0.00 0.01 0.01 93 1011.5
20260502100624 47 355 0.0 0.0 0.00 0.01 0.01 92 1011.5
20260502090624 49 355 0.0 0.0 0.01 0.01 0.01 89 1011.8
20260502070604 49 261 1.0 6.0 0.00 0.00 0.00 89 1011.2
20260502065603 49 260 0.0 0.0 0.00 0.00 0.00 91 1011.7
20260502064604 49 260 0.0 0.0 0.00 0.00 0.00 91 1011.5
20260502063603 49 260 0.0 0.0 0.00 0.00 0.00 91 1011.5
20260502062604 49 260 0.0 0.0 0.00 0.00 0.00 90 1011.2
20260502060604 49 260 0.0 0.0 0.00 0.00 0.00 90 1011.6
20260502055603 49 260 0.0 0.0 0.00 0.00 0.00 89 1011.6
20260502054603 49 260 0.0 0.0 0.00 0.00 0.00 88 1011.5
20260502053604 50 259 0.0 0.0 0.00 0.00 0.00 88 1011.4
20260502052604 50 260 0.0 0.0 0.00 0.00 0.00 87 1011.6
20260502051603 50 260 0.0 0.0 0.00 0.00 0.00 85 1011.5
20260502050625 50 260 0.0 0.0 0.00 0.00 0.00 83 1011.7
20260502045603 50 260 0.0 0.0 0.00 0.00 0.00 83 1011.8
20260502044604 50 260 0.0 0.0 0.00 0.00 0.00 83 1011.8
20260502043603 50 260 0.0 0.0 0.00 0.00 0.00 82 1011.7
20260502042604 51 260 0.0 0.0 0.00 0.00 0.00 81 1011.6
20260502041603 51 260 0.0 0.0 0.00 0.00 0.00 80 1011.6
20260502040604 51 260 0.0 0.0 0.00 0.00 0.00 79 1011.5
20260502035624 51 260 0.0 0.0 0.00 0.00 0.00 78 1011.6
20260502034603 51 260 0.0 0.0 0.00 0.00 0.00 77 1011.7
20260502033603 51 260 0.0 0.0 0.00 0.00 0.00 76 1011.6
20260502032603 51 260 0.0 0.0 0.00 0.00 0.00 75 1011.5
20260502031603 52 259 0.0 0.0 0.00 0.00 0.00 75 1011.6
20260502030603 52 260 0.0 0.0 0.00 0.00 0.00 74 1011.5
20260502025603 52 260 0.0 0.0 0.00 0.00 0.00 74 1011.9
20260502024624 52 260 0.0 0.0 0.00 0.00 0.00 72 1012.0
20260502023604 53 260 0.0 0.0 0.00 0.00 0.00 73 1011.7
20260502022603 53 260 0.0 0.0 0.00 0.00 0.00 70 1012.0
20260502021603 54 260 0.0 0.0 0.00 0.00 0.00 70 1011.9